[[{"header":{"parameterUnit":"m.s-1","parameterCategory":2,"la1":30.2991,"la2":30.254,"lo1":-89.0895,"lo2":-89.0444,"dy":0.0017,"dx":0.0017,"nx":28,"ny":28,"refTime":"2024-06-03T03:00:00:Z","depth":"0","parameterNumber":2,"parameterNumberName":"U-component_of_CURRENTS"},"data":[0,0,0,0,0,0,0,0,0,0,0,0,0,0,0,0,0,0,0,0,0,0,0,0,0,0,0,0,0,0,0,0,0,0,0,0,0,0,0,0,0,0,0,0,0,0,0,0,0,0,0,0,0,0,0,0,0,0,0.3069,0.307,0,0.3115,0.3115,0.3116,0.3115,0.3114,0.3114,0.3113,0.3122,0.3123,0.3123,0,0,0,0,0,0,0,0,0,0,0,0,0,0.2993,0.2994,0.3069,0.307,0.3071,0.3115,0.3115,0.3116,0.3115,0.3114,0.3114,0.3113,0.3122,0.3123,0.3124,0,0,0,0,0,0,0,0,0,0,0,0,0,0.3029,0.2995,0.3069,0.3077,0.3079,0.3115,0.3115,0.3116,0.3115,0.3114,0.3114,0.3113,0.3122,0.3123,0.3124,0.3141,0,0,0.3126,0.3127,0,0,0,0,0,0,0,0,0.3027,0.3031,0.3075,0.3077,0.3078,0.3111,0.3092,0.3123,0.3115,0.3098,0.3113,0.3113,0.3117,0.3118,0.3125,0.3142,0.3142,0.3127,0.3127,0.3127,0.3128,0,0,0,0,0,0,0,0.3024,0.303,0.3085,0.3076,0.3078,0.3083,0.3087,0.3098,0.3108,0.31,0.31,0.311,0.3117,0.3124,0.3125,0.3142,0.3126,0.3127,0.3128,0.3128,0.3204,0.3205,0,0,0,0,0,0,0.3024,0.3027,0.3083,0.3086,0.3053,0.3085,0.309,0.3099,0.3109,0.3111,0.311,0.311,0.3123,0.3124,0.3126,0.3175,0.3127,0.3128,0.3129,0.3202,0.3204,0.3205,0,0,0,0,0,0,0.3022,0.3029,0.3081,0.306,0.3067,0.3087,0.3098,0.31,0.311,0.3117,0.3118,0.3118,0.3123,0.3124,0.3136,0.3174,0.3129,0.313,0.32,0.3203,0.3205,0.3255,0,0,0,0,0,0,0.302,0.3028,0.3035,0.306,0.3068,0.3107,0.3099,0.3101,0.3118,0.3117,0.3124,0.3124,0.3122,0.3135,0.3137,0.3174,0.313,0.3199,0.3201,0.3204,0.3251,0.3258,0.3264,0,0,0,0,0,0.3017,0.303,0.3035,0.3042,0.3078,0.3108,0.3113,0.3124,0.3119,0.3128,0.3129,0.3124,0.3154,0.3136,0.3139,0.3177,0.3197,0.3201,0.3204,0.3248,0.3257,0.3264,0,0,0,0,0,0,0.3003,0.3033,0.3038,0.306,0.3085,0.3109,0.3123,0.3128,0.3138,0.3138,0.3133,0.3134,0.3166,0.3161,0.3141,0.3208,0.318,0.3183,0.3213,0.3221,0.3227,0.3248,0.3131,0,0,0,0,0,0.3005,0.3021,0.305,0.3069,0.3082,0.3103,0.3116,0.3128,0.3141,0.3145,0.315,0.3161,0.3183,0.319,0.3206,0.3233,0.3256,0.3262,0.3269,0.3275,0.3294,0.334,0.3352,0.3216,0.3216,0.3216,0,0,0.3005,0.3025,0.3034,0.3068,0.3086,0.3111,0.3109,0.3139,0.3162,0.3145,0.3172,0.3185,0.3196,0.3232,0.3247,0.3229,0.3332,0.3279,0.3283,0.33,0.3345,0.3358,0.337,0.3218,0.3218,0.3218,0,0,0.3014,0.3032,0.3048,0.3072,0.3108,0.3124,0.3133,0.3164,0.318,0.3209,0.3211,0.3243,0.3262,0.3287,0.33,0.3352,0.3367,0.3359,0.3407,0.3451,0.3462,0.3473,0.3543,0.356,0.3359,0.3359,0.3359,0,0.301,0.3033,0.3059,0.3084,0.3101,0.3129,0.315,0.3179,0.321,0.3229,0.3223,0.3283,0.3296,0.3348,0.3378,0.337,0.3403,0.3373,0.346,0.347,0.348,0.355,0.3567,0.3362,0.3362,0.3361,0.3361,0,0.3029,0.3051,0.3065,0.31,0.3129,0.3152,0.3196,0.3229,0.325,0.3274,0.3332,0.3356,0.3387,0.3409,0.3415,0.3497,0.3502,0.3464,0.3439,0.3497,0.3567,0.3584,0.3366,0.3365,0.3364,0.3363,0,0,0.2994,0.306,0.3063,0.3084,0.3135,0.3161,0.3215,0.3263,0.3306,0.3343,0.3404,0.3454,0.3468,0.3486,0.35,0.3556,0.367,0.3551,0.3552,0.3622,0.3797,0.3698,0.3707,0.3643,0.3646,0.3648,0.3826,0,0.2989,0.3033,0.3067,0.3108,0.3133,0.3183,0.323,0.3287,0.334,0.3412,0.3459,0.3521,0.3493,0.3534,0.3578,0.3662,0.3715,0.3628,0.373,0.3735,0.3638,0.3723,0.3543,0.3676,0.3843,0.3845,0.3847,0,0.2976,0.3014,0.3048,0.3118,0.3133,0.3161,0.3246,0.3297,0.3405,0.3457,0.3519,0.3566,0.3672,0.3638,0.3776,0.3722,0.3766,0.3818,0.3824,0.3726,0.3666,0.3641,0.3701,0.3606,0.3874,0.3872,0.387,0,0.2927,0.2992,0.3015,0.3037,0.3124,0.3152,0.3199,0.3298,0.3349,0.3498,0.3557,0.3661,0.3725,0.3806,0.389,0.3854,0.4048,0.3997,0.3945,0.394,0.3806,0.3782,0.3782,0.4083,0.4083,0.4082,0.4082,0,0.2899,0.2916,0.2993,0.3009,0.3049,0.3124,0.3178,0.326,0.3375,0.3446,0.356,0.3637,0.3769,0.3875,0.3946,0.4006,0.4075,0.3988,0.3981,0.3818,0.3795,0.3717,0.3672,0.4089,0.4088,0.4086,0.4085,0,0.2838,0.2884,0.2917,0.3001,0.3023,0.3054,0.3143,0.3195,0.3314,0.3425,0.3479,0.3645,0.3785,0.39,0.4067,0.405,0.4027,0.4137,0.3952,0.3918,0.3737,0.3701,0.3588,0.3489,0.4128,0.4126,0.4125,0,0.2809,0.282,0.289,0.2909,0.294,0.2993,0.3031,0.3151,0.3213,0.3413,0.3465,0.3637,0.3728,0.3931,0.3976,0.4084,0.3968,0.396,0.3835,0.3728,0.3686,0.3544,0.3459,0.3707,0.3703,0.3699,0.3696,0,0.276,0.2776,0.2809,0.2849,0.2881,0.2917,0.2985,0.3027,0.3185,0.3266,0.3408,0.3509,0.3679,0.3703,0.3816,0.3852,0.3744,0.3882,0.3818,0.3401,0.3202,0.3101,0.3621,0.3663,0.3667,0.3669,0.3671,0.3672,0.271,0.2716,0.2758,0.2782,0.2813,0.284,0.2834,0.2919,0.2987,0.3093,0.3271,0.3337,0.3447,0.3564,0.3577,0.348,0.3493,0.3391,0.3382,0.3269,0.3068,0.3523,0.3506,0.3508,0.351,0.3512,0.3514,0,0.2655,0.2669,0.2693,0.2708,0.2692,0.2746,0.2792,0.2765,0.2785,0.2923,0.3003,0.3075,0.308,0.3151,0.3142,0.3031,0.2889,0.2953,0.2729,0.2692,0.315,0.3023,0.2841,0.2841,0.2841,0.2841,0.2841,0.2841,0.2634,0.2626,0.2633,0.2583,0.2582,0.2516,0.2514,0.2497,0.2546,0.2563,0.2586,0.2675,0.284,0.2876,0.2772,0.2695,0.2503,0.2352,0.2395,0.2737,0.2777,0.2815,0.2685,0.2435,0.2435,0.1801,0.1796,0.1793]},{"header":{"parameterUnit":"m.s-1","parameterCategory":2,"la1":30.2991,"la2":30.254,"lo1":-89.0895,"lo2":-89.0444,"dy":0.0017,"dx":0.0017,"nx":28,"ny":28,"refTime":"2024-06-03T03:00:00:Z","depth":"0","parameterNumber":3,"parameterNumberName":"V-component_of_CURRENTS"},"data":[0,0,0,0,0,0,0,0,0,0,0,0,0,0,0,0,0,0,0,0,0,0,0,0,0,0,0,0,0,0,0,0,0,0,0,0,0,0,0,0,0,0,0,0,0,0,0,0,0,0,0,0,0,0,0,0,0,0,0.0274,0.0273,0,0.0203,0.0202,0.0201,0.0147,0.0147,0.0147,0.0146,0.0019,0.0016,0.0012,0,0,0,0,0,0,0,0,0,0,0,0,0,0.0284,0.0285,0.0274,0.0273,0.0273,0.0203,0.0202,0.0201,0.0147,0.0147,0.0147,0.0146,0.002,0.0016,0.0012,0,0,0,0,0,0,0,0,0,0,0,0,0,0.0251,0.0285,0.0274,0.0239,0.0236,0.0203,0.0202,0.02,0.0147,0.0147,0.0146,0.0146,0.0021,0.0016,0.0012,-0.001,0,0,-0.0003,-0.0005,0,0,0,0,0,0,0,0,0.0253,0.0251,0.0245,0.0242,0.0238,0.0186,0.0159,0.0128,0.0147,0.0178,0.0146,0.0146,0.0071,0.0062,0.0047,-0.0016,-0.0021,-0.0003,-0.0006,-0.0008,-0.001,0,0,0,0,0,0,0,0.0256,0.0253,0.0243,0.0245,0.024,0.0201,0.0196,0.0152,0.0125,0.0176,0.0172,0.0168,0.0068,0.0052,0.0044,-0.0023,-0.0003,-0.0007,-0.001,-0.0012,-0.0106,-0.0106,0,0,0,0,0,0,0.0274,0.0256,0.0246,0.0242,0.0247,0.0201,0.0196,0.0201,0.0126,0.0116,0.0169,0.0166,0.006,0.0049,0.0039,0.0023,-0.0008,-0.0013,-0.0015,-0.0106,-0.0106,-0.0105,0,0,0,0,0,0,0.0275,0.0274,0.0249,0.0248,0.0242,0.0202,0.0208,0.02,0.0186,0.0122,0.011,0.0164,0.0059,0.0045,0.0009,0.0017,-0.0015,-0.0019,-0.0107,-0.0106,-0.0106,-0.0018,0,0,0,0,0,0,0.0276,0.0275,0.0285,0.025,0.0243,0.0239,0.0208,0.0199,0.0185,0.0181,0.0114,0.0102,0.0058,0.0016,0.0004,0.001,-0.0023,-0.0107,-0.0106,-0.0106,-0.0022,-0.0015,-0.0009,0,0,0,0,0,0.0276,0.0295,0.0286,0.0285,0.0259,0.024,0.0232,0.02,0.0186,0.0185,0.0142,0.0104,0.0012,0.0013,-0.0001,0.0003,-0.0107,-0.0107,-0.0106,-0.0024,-0.0016,-0.0009,0,0,0,0,0,0,0.0303,0.029,0.028,0.0293,0.0273,0.0232,0.023,0.0208,0.0173,0.0171,0.0107,0.0092,0.0061,0.0021,0.0024,-0.0022,-0.0054,-0.0056,0.0013,0.002,0.0026,0.0067,-0.0027,0,0,0,0,0,0.0316,0.0326,0.0302,0.0312,0.0306,0.027,0.0258,0.024,0.0205,0.019,0.0144,0.0096,0.0053,0.003,-0.0015,-0.0039,-0.0049,-0.0046,-0.004,-0.0034,-0.0011,-0.0015,-0.0007,-0.0103,-0.0103,-0.0103,0,0,0.033,0.0323,0.0329,0.0318,0.0299,0.0303,0.0261,0.0255,0.0257,0.0181,0.0167,0.0114,0.0051,0.0023,0.0006,-0.0008,-0.0012,-0.0033,-0.0027,-0.0007,-0.0014,-0.0004,0.0005,-0.0102,-0.0103,-0.0103,0,0,0.0363,0.0357,0.0376,0.0367,0.0352,0.033,0.0334,0.0301,0.0286,0.0265,0.0212,0.0172,0.0105,0.0066,0.0036,0.005,0.0021,0.0031,0.0096,0.0091,0.01,0.0107,0.0114,0.0121,0.0036,0.0036,0.0036,0,0.0377,0.0403,0.0377,0.0393,0.0392,0.035,0.0369,0.035,0.0309,0.0306,0.0273,0.0195,0.0128,0.0108,0.0105,0.0066,0.0068,0.0073,0.0103,0.0109,0.0116,0.012,0.0127,0.004,0.004,0.0039,0.0039,0,0.0426,0.0445,0.0455,0.0464,0.0457,0.0467,0.0442,0.0439,0.0412,0.0388,0.0364,0.0284,0.0239,0.0206,0.0153,0.0163,0.0152,0.0112,0.0091,0.0131,0.0133,0.0139,0.0046,0.0045,0.0044,0.0043,0,0,0.0458,0.0486,0.0489,0.0513,0.0499,0.0504,0.0513,0.0512,0.0537,0.0483,0.051,0.041,0.0371,0.0336,0.0269,0.0259,0.0281,0.0212,0.021,0.0234,0.0293,0.0268,0.0271,0.0254,0.0256,0.0257,0.028,0,0.0503,0.0559,0.0552,0.0601,0.0627,0.0602,0.0619,0.0611,0.0593,0.061,0.054,0.0528,0.042,0.041,0.0376,0.0312,0.03,0.028,0.0238,0.0238,0.0222,0.0278,0.0262,0.028,0.0285,0.0286,0.0287,0,0.055,0.0585,0.0646,0.0688,0.0698,0.0721,0.0753,0.0765,0.0767,0.0756,0.0731,0.068,0.0644,0.0555,0.0475,0.0473,0.0392,0.034,0.0338,0.0293,0.0223,0.0237,0.029,0.0143,0.0295,0.0295,0.0294,0,0.0592,0.0647,0.0704,0.0717,0.0756,0.0788,0.0807,0.0815,0.0853,0.0867,0.0904,0.0832,0.0828,0.0724,0.0579,0.054,0.0515,0.0438,0.0344,0.0341,0.0309,0.0301,0.0228,0.0396,0.0396,0.0396,0.0396,0,0.0641,0.0687,0.074,0.0775,0.0857,0.0855,0.0939,0.0949,0.0996,0.1073,0.099,0.1043,0.0874,0.0822,0.0665,0.0539,0.0572,0.0384,0.0354,0.0338,0.0332,0.0185,0.0105,0.0397,0.0397,0.0397,0.0397,0,0.068,0.0709,0.0787,0.0854,0.0883,0.0945,0.1036,0.11,0.1131,0.1241,0.1261,0.1227,0.1157,0.0982,0.0834,0.0668,0.0456,0.0476,0.0475,0.0443,0.0194,0.0121,0.0045,-0.0011,0.0384,0.0384,0.0383,0,0.0708,0.0755,0.0853,0.0912,0.0951,0.1043,0.1113,0.1164,0.1248,0.1361,0.1433,0.1406,0.1398,0.1171,0.0884,0.0638,0.0471,0.0453,0.0353,0.0207,0.0103,0.0049,0.0003,0.0347,0.0346,0.0346,0.0345,0,0.0767,0.0802,0.0869,0.0992,0.1081,0.1188,0.13,0.139,0.148,0.158,0.1706,0.172,0.1502,0.1241,0.0891,0.0705,0.0353,0.0434,0.0284,0.0083,0.0021,-0.0057,0.0309,0.0341,0.0341,0.0342,0.0342,0.0342,0.0813,0.0873,0.0966,0.1081,0.1187,0.1329,0.1428,0.1561,0.1718,0.1877,0.1889,0.1918,0.1547,0.1064,0.0802,0.031,0.0319,0.0132,0.0063,0.0029,-0.0052,0.0314,0.0302,0.0303,0.0303,0.0303,0.0303,0,0.087,0.0939,0.1049,0.1188,0.1308,0.1359,0.1548,0.1659,0.1851,0.198,0.2073,0.1891,0.1436,0.097,0.0314,-0.0014,-0.0122,-0.0185,-0.0277,-0.0302,0.0024,-0.0007,-0.0087,-0.0087,-0.0086,-0.0086,-0.0086,-0.0086,0.0904,0.1008,0.1064,0.1265,0.1366,0.1534,0.1645,0.1812,0.1936,0.2077,0.2074,0.2048,0.1694,0.0565,-0.0196,-0.0358,-0.0556,-0.0604,-0.0687,-0.0498,-0.0474,-0.0451,-0.05,-0.0682,-0.0683,-0.0987,-0.099,-0.0993]}],[{"header":{"parameterUnit":"m.s-1","parameterCategory":2,"la1":30.2991,"la2":30.254,"lo1":-89.0895,"lo2":-89.0444,"dy":0.0017,"dx":0.0017,"nx":28,"ny":28,"refTime":"2024-06-03T03:00:00:Z","depth":"2","parameterNumber":2,"parameterNumberName":"U-component_of_CURRENTS"},"data":[0,0,0,0,0,0,0,0,0,0,0,0,0,0,0,0,0,0,0,0,0,0,0,0,0,0,0,0,0,0,0,0,0,0,0,0,0,0,0,0,0,0,0,0,0,0,0,0,0,0,0,0,0,0,0,0,0,0,0.2552,0.2553,0,0.2598,0.2598,0.2599,0.2624,0.2624,0.2624,0.2624,0.2638,0.2638,0.2639,0,0,0,0,0,0,0,0,0,0,0,0,0,0.2499,0.25,0.2552,0.2553,0.2554,0.2598,0.2598,0.2599,0.2624,0.2624,0.2624,0.2624,0.2638,0.2638,0.2639,0,0,0,0,0,0,0,0,0,0,0,0,0,0.2531,0.25,0.2552,0.2572,0.2574,0.2598,0.2598,0.2599,0.2624,0.2624,0.2624,0.2624,0.2638,0.2638,0.2639,0.2638,0,0,0.264,0.264,0,0,0,0,0,0,0,0,0.2529,0.2533,0.2568,0.257,0.2573,0.2606,0.2585,0.2611,0.2624,0.2605,0.2624,0.2624,0.2624,0.2626,0.2634,0.2639,0.264,0.264,0.264,0.264,0.2641,0,0,0,0,0,0,0,0.2527,0.2531,0.257,0.2569,0.2572,0.2582,0.2587,0.259,0.2612,0.2606,0.2608,0.2614,0.2626,0.2634,0.2635,0.264,0.264,0.264,0.2641,0.2641,0.2704,0.2705,0,0,0,0,0,0,0.2521,0.2529,0.2569,0.2571,0.2551,0.2583,0.2588,0.2595,0.2613,0.2616,0.2614,0.2615,0.2633,0.2634,0.2635,0.2694,0.264,0.2641,0.2641,0.2702,0.2704,0.2706,0,0,0,0,0,0,0.252,0.2524,0.2567,0.2551,0.2558,0.2584,0.2591,0.2596,0.2619,0.2619,0.2622,0.2634,0.2633,0.2635,0.2644,0.2692,0.2641,0.2641,0.2701,0.2703,0.2705,0.2773,0,0,0,0,0,0,0.2518,0.2523,0.2532,0.2551,0.2558,0.2588,0.2591,0.2596,0.2621,0.2624,0.2637,0.2638,0.2633,0.2644,0.2645,0.2692,0.2642,0.2699,0.2702,0.2704,0.2769,0.2777,0.2784,0,0,0,0,0,0.2516,0.2531,0.2532,0.2537,0.2567,0.2588,0.2593,0.2612,0.2622,0.2633,0.2639,0.2638,0.2662,0.2644,0.2645,0.2694,0.2698,0.2701,0.2704,0.2765,0.2775,0.2784,0,0,0,0,0,0,0.2511,0.2535,0.2537,0.2558,0.2572,0.2593,0.2614,0.2621,0.2637,0.2647,0.2642,0.2643,0.2676,0.2668,0.2649,0.272,0.2686,0.2689,0.2732,0.2742,0.2749,0.2761,0.2642,0,0,0,0,0,0.2512,0.2532,0.2548,0.2564,0.2578,0.2597,0.2611,0.2624,0.2638,0.2647,0.2654,0.2668,0.2689,0.2699,0.2709,0.2737,0.2744,0.2773,0.2781,0.2787,0.2798,0.2838,0.2851,0.2716,0.2716,0.2716,0,0,0.2509,0.2531,0.2537,0.2565,0.2585,0.2606,0.2607,0.2639,0.2661,0.2645,0.268,0.2692,0.2701,0.2738,0.2754,0.2738,0.2831,0.2791,0.2797,0.2804,0.2843,0.2856,0.2868,0.2718,0.2718,0.2718,0,0,0.2516,0.2541,0.2556,0.2579,0.2613,0.2626,0.2637,0.2665,0.2687,0.2716,0.272,0.2752,0.2775,0.2796,0.2809,0.2863,0.2868,0.2876,0.2928,0.2967,0.2979,0.2989,0.3022,0.3034,0.2882,0.2883,0.2883,0,0.2512,0.2536,0.2562,0.2591,0.261,0.2637,0.2655,0.2686,0.2712,0.2734,0.2737,0.2791,0.2809,0.2853,0.2892,0.2883,0.2902,0.2893,0.2978,0.2988,0.2997,0.3029,0.3042,0.2886,0.2886,0.2885,0.2885,0,0.2523,0.2554,0.2574,0.2613,0.2636,0.2665,0.2702,0.2735,0.2767,0.2795,0.2849,0.2866,0.2901,0.2924,0.2936,0.3013,0.3005,0.2982,0.2955,0.3015,0.3044,0.3057,0.2892,0.289,0.2889,0.2888,0,0,0.2493,0.2562,0.2574,0.2596,0.2654,0.2672,0.2725,0.2772,0.2819,0.2857,0.2913,0.2969,0.2989,0.3005,0.3017,0.3066,0.3169,0.307,0.3071,0.3105,0.3262,0.3157,0.316,0.3165,0.3167,0.3169,0.3259,0,0.2493,0.2536,0.2575,0.2621,0.2645,0.2698,0.2745,0.2799,0.2854,0.2921,0.2964,0.3029,0.3015,0.3058,0.3099,0.3173,0.3204,0.3147,0.3198,0.3199,0.31,0.3171,0.2923,0.2973,0.327,0.3272,0.3274,0,0.2491,0.2524,0.2557,0.2631,0.2649,0.2685,0.2767,0.2813,0.2917,0.2967,0.3024,0.3075,0.3176,0.3148,0.3261,0.3231,0.3253,0.3283,0.3286,0.3173,0.3117,0.2959,0.2984,0.3294,0.3292,0.3291,0.329,0,0.2445,0.2518,0.254,0.2566,0.2647,0.2686,0.2734,0.2829,0.2883,0.3009,0.3071,0.3161,0.3228,0.3286,0.336,0.3338,0.3466,0.3433,0.3334,0.3326,0.3115,0.3084,0.3476,0.3476,0.3476,0.3475,0.3475,0,0.2425,0.2451,0.2529,0.2547,0.2593,0.2665,0.273,0.28,0.2913,0.2983,0.3089,0.3146,0.3272,0.3355,0.3398,0.3414,0.3488,0.3362,0.3348,0.313,0.3102,0.3372,0.3358,0.3479,0.3478,0.3477,0.3477,0,0.2365,0.2413,0.2449,0.2539,0.2571,0.2603,0.2714,0.2767,0.2885,0.2983,0.3039,0.3182,0.3295,0.3379,0.3493,0.3446,0.3491,0.3451,0.3188,0.3141,0.3317,0.3306,0.3383,0.338,0.3378,0.3376,0.3374,0,0.2334,0.235,0.2428,0.2449,0.2491,0.2556,0.2604,0.273,0.279,0.2978,0.3019,0.3176,0.3225,0.3342,0.3337,0.3373,0.3434,0.3127,0.3025,0.3331,0.3311,0.3304,0.3297,0.2783,0.2777,0.2772,0.2767,0,0.2281,0.2314,0.2339,0.2388,0.2434,0.247,0.2557,0.2595,0.275,0.2835,0.2938,0.3008,0.3108,0.303,0.3072,0.3053,0.3116,0.3018,0.3425,0.2833,0.2769,0.2748,0.276,0.2721,0.2725,0.2729,0.2731,0.2733,0.2243,0.2243,0.2293,0.2309,0.2362,0.238,0.2375,0.2466,0.2528,0.2622,0.2758,0.2768,0.281,0.2743,0.2675,0.2636,0.2841,0.2722,0.2737,0.2758,0.2661,0.2594,0.2496,0.2499,0.2502,0.2504,0.2506,0,0.2186,0.2188,0.2216,0.2226,0.2231,0.2298,0.2336,0.2296,0.2303,0.2415,0.2467,0.2298,0.2246,0.2303,0.2165,0.216,0.2129,0.2079,0.2024,0.2073,0.2116,0.1983,0.164,0.1637,0.1634,0.1632,0,0,0.2159,0.2138,0.2129,0.2086,0.2108,0.2073,0.2064,0.2017,0.2045,0.2005,0.2007,0.2161,0.2242,0.1916,0.1873,0.1733,0.1885,0.1665,0.2367,0.2353,0.2391,0.2502,0.2355,0,0,0,0,0]},{"header":{"parameterUnit":"m.s-1","parameterCategory":2,"la1":30.2991,"la2":30.254,"lo1":-89.0895,"lo2":-89.0444,"dy":0.0017,"dx":0.0017,"nx":28,"ny":28,"refTime":"2024-06-03T03:00:00:Z","depth":"2","parameterNumber":3,"parameterNumberName":"V-component_of_CURRENTS"},"data":[0,0,0,0,0,0,0,0,0,0,0,0,0,0,0,0,0,0,0,0,0,0,0,0,0,0,0,0,0,0,0,0,0,0,0,0,0,0,0,0,0,0,0,0,0,0,0,0,0,0,0,0,0,0,0,0,0,0,0.0107,0.0106,0,0.0052,0.0051,0.005,0.0013,0.0013,0.0013,0.0013,-0.0064,-0.0065,-0.0067,0,0,0,0,0,0,0,0,0,0,0,0,0,0.0115,0.0115,0.0107,0.0106,0.0106,0.0052,0.0051,0.005,0.0013,0.0013,0.0013,0.0012,-0.0063,-0.0065,-0.0067,0,0,0,0,0,0,0,0,0,0,0,0,0,0.009,0.0115,0.0107,0.0082,0.0079,0.0052,0.0051,0.005,0.0013,0.0013,0.0013,0.0012,-0.0062,-0.0065,-0.0068,-0.0082,0,0,-0.0077,-0.0078,0,0,0,0,0,0,0,0,0.0091,0.0089,0.0086,0.0084,0.0081,0.0041,0.0026,0.0005,0.0013,0.0036,0.0013,0.0012,-0.0029,-0.0035,-0.0047,-0.0085,-0.0089,-0.0077,-0.0079,-0.008,-0.0081,0,0,0,0,0,0,0,0.0093,0.0091,0.0083,0.0086,0.0082,0.0052,0.0048,0.0022,0.0003,0.0034,0.0032,0.0028,-0.0031,-0.0044,-0.0049,-0.009,-0.0077,-0.0079,-0.0081,-0.0082,-0.0144,-0.0144,0,0,0,0,0,0,0.0107,0.0093,0.0085,0.0082,0.0087,0.0052,0.0048,0.0052,0.0004,-0.0003,0.0029,0.0027,-0.0039,-0.0046,-0.0052,-0.006,-0.008,-0.0082,-0.0084,-0.0144,-0.0144,-0.0144,0,0,0,0,0,0,0.0107,0.0107,0.0087,0.0087,0.0082,0.0053,0.0057,0.0051,0.0042,0.0,-0.0007,0.0026,-0.004,-0.0048,-0.0068,-0.0064,-0.0084,-0.0086,-0.0144,-0.0144,-0.0144,-0.0084,0,0,0,0,0,0,0.0108,0.0108,0.0116,0.0088,0.0083,0.0081,0.0057,0.005,0.0041,0.0038,-0.0004,-0.0012,-0.004,-0.0063,-0.0071,-0.0068,-0.0089,-0.0144,-0.0144,-0.0144,-0.0086,-0.0082,-0.0078,0,0,0,0,0,0.0109,0.0123,0.0117,0.0115,0.0095,0.0081,0.0076,0.0052,0.0041,0.0042,0.0014,-0.001,-0.0068,-0.0065,-0.0074,-0.0072,-0.0144,-0.0144,-0.0144,-0.0088,-0.0083,-0.0078,0,0,0,0,0,0,0.013,0.0119,0.0112,0.0122,0.0107,0.0076,0.0074,0.0058,0.0036,0.0033,-0.0007,-0.0016,-0.0035,-0.0061,-0.0057,-0.0091,-0.0111,-0.0113,-0.0066,-0.0061,-0.0057,-0.0031,-0.0091,0,0,0,0,0,0.0139,0.0148,0.0129,0.0137,0.0133,0.0105,0.0096,0.0082,0.0058,0.0048,0.0019,-0.0013,-0.0042,-0.0056,-0.0085,-0.01,-0.0119,-0.0106,-0.0102,-0.0098,-0.0083,-0.0104,-0.01,-0.0143,-0.0143,-0.0143,0,0,0.0148,0.0145,0.0148,0.0142,0.0128,0.013,0.0099,0.0093,0.0094,0.0043,0.0037,-0.0,-0.0043,-0.0061,-0.0072,-0.0081,-0.0099,-0.0098,-0.0095,-0.0081,-0.0104,-0.0099,-0.0096,-0.0143,-0.0143,-0.0143,0,0,0.0173,0.017,0.0185,0.0179,0.0167,0.0151,0.0153,0.0128,0.0117,0.0104,0.0066,0.004,-0.0004,-0.0031,-0.0051,-0.0043,-0.0078,-0.006,-0.0017,-0.0037,-0.0033,-0.003,-0.0055,-0.0055,-0.0056,-0.0056,-0.0056,0,0.0184,0.0206,0.0186,0.0199,0.02,0.0166,0.0182,0.0165,0.0136,0.0134,0.0111,0.005,0.0012,-0.0008,-0.0007,-0.0032,-0.0051,-0.0029,-0.003,-0.0028,-0.0025,-0.0052,-0.0052,-0.0053,-0.0054,-0.0054,-0.0054,0,0.022,0.0237,0.0246,0.0254,0.0249,0.0259,0.0237,0.0234,0.0213,0.0192,0.0168,0.0113,0.0083,0.0056,0.0027,0.0021,-0.0001,-0.0023,-0.0037,-0.0017,-0.0047,-0.0048,-0.0049,-0.005,-0.0051,-0.0052,0,0,0.0249,0.0269,0.0273,0.0293,0.0284,0.0288,0.0293,0.029,0.0304,0.0258,0.0267,0.0201,0.0172,0.0147,0.0099,0.0075,0.0065,0.004,0.0037,0.0025,0.0018,-0.0011,-0.0016,0.0044,0.0045,0.0045,-0.0011,0,0.0286,0.0329,0.0325,0.0365,0.0386,0.0366,0.0379,0.0369,0.0349,0.0349,0.0287,0.0274,0.0205,0.0196,0.0159,0.0099,0.0066,0.0083,-0.0007,-0.001,-0.003,-0.0017,0.0019,-0.0028,-0.0012,-0.0013,-0.0013,0,0.0327,0.0352,0.0402,0.0436,0.0444,0.0464,0.0485,0.0491,0.0475,0.0459,0.0425,0.0379,0.034,0.0279,0.0182,0.0197,0.0116,0.0056,0.0052,0.0008,-0.0041,-0.0046,-0.0031,-0.0015,-0.0015,-0.0015,-0.0015,0,0.0365,0.0408,0.0454,0.0465,0.0494,0.0521,0.0536,0.053,0.0556,0.054,0.0555,0.048,0.0465,0.0358,0.0229,0.0214,0.0118,0.008,-0.0031,-0.0035,-0.0029,-0.0033,0.0005,0.0005,0.0005,0.0006,0.0006,0,0.041,0.0447,0.0485,0.0513,0.0579,0.0576,0.0639,0.064,0.066,0.0705,0.0625,0.0638,0.0488,0.041,0.0271,0.0125,0.0149,-0.0015,-0.0046,-0.001,-0.0011,-0.002,-0.0022,0.0004,0.0004,0.0004,0.0005,0,0.0444,0.0467,0.0527,0.0577,0.0603,0.065,0.0721,0.0763,0.0773,0.0834,0.0842,0.0776,0.0676,0.0506,0.0338,0.0195,0.0047,-0.0021,0.0029,0.0004,-0.0106,-0.0104,-0.0138,-0.0139,-0.014,-0.0141,-0.0142,0,0.0464,0.0501,0.0579,0.0625,0.0657,0.0729,0.0783,0.0817,0.0871,0.0918,0.0958,0.0887,0.083,0.0564,0.0323,0.0081,0.0038,-0.0061,-0.0092,-0.009,-0.0118,-0.0115,-0.0112,-0.0066,-0.0066,-0.0067,-0.0067,0,0.0503,0.0533,0.0585,0.0683,0.0755,0.0835,0.0922,0.0984,0.1038,0.1091,0.1136,0.1098,0.0858,0.0624,0.0293,0.0126,-0.0018,-0.0073,-0.0068,-0.0038,-0.0028,-0.0054,-0.0052,-0.0068,-0.0068,-0.0067,-0.0067,-0.0067,0.0534,0.0576,0.0652,0.074,0.083,0.0935,0.1006,0.11,0.12,0.1283,0.1253,0.1203,0.0944,0.0523,0.0249,-0.0032,-0.003,-0.0139,-0.0136,-0.0134,-0.0118,-0.0111,-0.0163,-0.0163,-0.0164,-0.0164,-0.0164,0,0.057,0.0618,0.0702,0.0811,0.0914,0.0959,0.1094,0.1154,0.1274,0.135,0.1377,0.113,0.0867,0.0572,0.0165,-0.0098,-0.0111,-0.0184,-0.0134,-0.013,-0.0128,-0.0111,-0.0155,-0.0156,-0.0157,-0.0157,0,0,0.059,0.0668,0.0704,0.086,0.0948,0.108,0.1159,0.1247,0.1322,0.1373,0.1369,0.1308,0.0956,0.0661,0.0321,0.009,0.0035,0.0036,0.0058,0.0162,0.0168,-0.0072,-0.0039,0,0,0,0,0]}],[{"header":{"parameterUnit":"m.s-1","parameterCategory":2,"la1":30.2991,"la2":30.254,"lo1":-89.0895,"lo2":-89.0444,"dy":0.0017,"dx":0.0017,"nx":28,"ny":28,"refTime":"2024-06-03T03:00:00:Z","depth":"4","parameterNumber":2,"parameterNumberName":"U-component_of_CURRENTS"},"data":[0,0,0,0,0,0,0,0,0,0,0,0,0,0,0,0,0,0,0,0,0,0,0,0,0,0,0,0,0,0,0,0,0,0,0,0,0,0,0,0,0,0,0,0,0,0,0,0,0,0,0,0,0,0,0,0,0,0,0.1514,0.1515,0,0.155,0.1551,0.1551,0.1604,0.1605,0.1606,0.1607,0.1616,0.1615,0.1615,0,0,0,0,0,0,0,0,0,0,0,0,0,0.1468,0.1469,0.1514,0.1515,0.1515,0.155,0.1551,0.1551,0.1604,0.1605,0.1606,0.1608,0.1616,0.1615,0.1615,0,0,0,0,0,0,0,0,0,0,0,0,0,0.1494,0.1469,0.1514,0.1547,0.155,0.155,0.1551,0.1551,0.1604,0.1605,0.1607,0.1608,0.1617,0.1615,0.1614,0.1577,0,0,0.1611,0.1611,0,0,0,0,0,0,0,0,0.1492,0.1495,0.1541,0.1545,0.1548,0.1575,0.1538,0.1559,0.1603,0.1582,0.1607,0.1609,0.1599,0.16,0.1602,0.1577,0.1578,0.1611,0.161,0.161,0.161,0,0,0,0,0,0,0,0.149,0.1494,0.1527,0.1542,0.1546,0.1552,0.1557,0.1542,0.158,0.1584,0.1588,0.1594,0.1601,0.1603,0.1603,0.1578,0.1611,0.161,0.1609,0.1609,0.1638,0.164,0,0,0,0,0,0,0.1488,0.1492,0.1526,0.1529,0.1525,0.1551,0.1557,0.1564,0.1581,0.1586,0.1592,0.1596,0.1604,0.1604,0.1603,0.1655,0.161,0.1609,0.1608,0.1637,0.1639,0.164,0,0,0,0,0,0,0.1486,0.149,0.1525,0.1512,0.1517,0.1551,0.1558,0.1564,0.1601,0.1588,0.1592,0.1627,0.1605,0.1605,0.163,0.1652,0.1608,0.1607,0.1635,0.1638,0.164,0.1698,0,0,0,0,0,0,0.1485,0.149,0.1511,0.1512,0.1518,0.1545,0.1557,0.1564,0.16,0.1607,0.1618,0.1619,0.1606,0.1632,0.1629,0.165,0.1607,0.1634,0.1636,0.1639,0.1694,0.1701,0.1708,0,0,0,0,0,0.1483,0.1494,0.1511,0.1517,0.154,0.1546,0.155,0.1578,0.1601,0.1617,0.1638,0.162,0.1647,0.1632,0.1628,0.165,0.1632,0.1636,0.1639,0.1691,0.17,0.1708,0,0,0,0,0,0,0.1483,0.15,0.152,0.1537,0.1554,0.1556,0.1574,0.1594,0.1623,0.1639,0.1633,0.1635,0.1668,0.1651,0.1635,0.1668,0.1638,0.1641,0.1679,0.1687,0.1694,0.1715,0.1606,0,0,0,0,0,0.1493,0.151,0.1524,0.1541,0.155,0.1571,0.1585,0.1604,0.162,0.1637,0.1646,0.1659,0.167,0.1676,0.1679,0.1688,0.1695,0.1702,0.1709,0.1715,0.1731,0.1772,0.1785,0.1651,0.1651,0.1651,0,0,0.1496,0.151,0.1521,0.1544,0.1559,0.1576,0.1584,0.1609,0.1634,0.1629,0.1672,0.1684,0.1681,0.1704,0.1715,0.1696,0.1756,0.1719,0.1724,0.1737,0.1777,0.179,0.1801,0.1653,0.1653,0.1652,0,0,0.1495,0.1526,0.1537,0.1556,0.1586,0.1598,0.1614,0.1636,0.1661,0.1697,0.1707,0.1741,0.1749,0.1757,0.1759,0.1805,0.1797,0.1806,0.1851,0.1891,0.1902,0.1913,0.1934,0.1946,0.1804,0.1804,0.1804,0,0.1507,0.1522,0.1541,0.1558,0.158,0.1612,0.1632,0.1653,0.1688,0.1712,0.1722,0.1778,0.1775,0.1809,0.1835,0.182,0.1842,0.1816,0.1901,0.1911,0.1921,0.194,0.1953,0.1807,0.1807,0.1807,0.1806,0,0.1506,0.1536,0.1542,0.158,0.1604,0.1627,0.1658,0.1697,0.1737,0.1761,0.1822,0.1834,0.1872,0.1874,0.1871,0.1934,0.1928,0.1909,0.1879,0.1938,0.1954,0.1966,0.1812,0.1811,0.181,0.1809,0,0,0.1491,0.1535,0.1545,0.1572,0.1624,0.164,0.1688,0.1735,0.1783,0.1827,0.1887,0.1921,0.1952,0.1959,0.1961,0.1996,0.2077,0.1993,0.1993,0.2014,0.2169,0.2015,0.2013,0.2083,0.2086,0.2088,0.2152,0,0.1493,0.1525,0.1552,0.16,0.1618,0.1673,0.1716,0.177,0.182,0.1885,0.1923,0.1981,0.1973,0.2012,0.2048,0.2077,0.2113,0.2062,0.211,0.2111,0.1967,0.2022,0.2096,0.216,0.2163,0.2165,0.2166,0,0.1485,0.1509,0.1549,0.1617,0.1634,0.168,0.1771,0.1814,0.1902,0.1944,0.2014,0.205,0.2124,0.2108,0.2192,0.2167,0.2184,0.2195,0.2197,0.2043,0.1978,0.2091,0.2187,0.2185,0.2184,0.2183,0.2181,0,0.1454,0.1512,0.1548,0.1572,0.1648,0.1699,0.1758,0.1844,0.1886,0.2,0.2052,0.2133,0.2196,0.2237,0.2265,0.2251,0.2343,0.2315,0.2187,0.2176,0.227,0.2258,0.2378,0.2378,0.2378,0.2378,0.2377,0,0.1434,0.147,0.1548,0.157,0.1635,0.1701,0.1783,0.1852,0.1946,0.1999,0.2093,0.214,0.2242,0.2294,0.2302,0.2275,0.2373,0.221,0.2188,0.2291,0.2281,0.2278,0.2265,0.238,0.2379,0.2379,0.2379,0,0.139,0.144,0.1489,0.1583,0.162,0.1675,0.179,0.1833,0.1946,0.2022,0.2067,0.2185,0.2255,0.231,0.2381,0.2309,0.2302,0.2265,0.2376,0.2357,0.2102,0.2092,0.2136,0.2131,0.2127,0.2124,0.2121,0,0.1366,0.1385,0.1489,0.1519,0.1572,0.1658,0.1704,0.1822,0.1864,0.2017,0.204,0.2162,0.2221,0.2195,0.2265,0.2264,0.2233,0.2213,0.2155,0.2106,0.2081,0.2077,0.2073,0.2114,0.2113,0.2112,0.2111,0,0.1315,0.1369,0.1408,0.1464,0.1524,0.1573,0.1661,0.1677,0.1805,0.1925,0.1968,0.1999,0.2071,0.2109,0.2125,0.2115,0.2216,0.217,0.2178,0.2124,0.208,0.2058,0.2059,0.2097,0.2099,0.21,0.2101,0,0.1285,0.1298,0.1351,0.1391,0.1453,0.1465,0.1523,0.1573,0.163,0.18,0.1811,0.1929,0.2054,0.2031,0.2039,0.2025,0.1994,0.192,0.194,0.1956,0.1864,0.1779,0.1697,0,0,0,0,0,0.124,0.1235,0.1264,0.1294,0.1347,0.1383,0.1473,0.153,0.1659,0.1644,0.1722,0.1774,0.1801,0.1862,0.1811,0.1952,0.1996,0.1883,0.192,0.2019,0.2036,0.1941,0,0,0,0,0,0,0.1202,0.123,0.1228,0.1197,0.1201,0.1242,0.1293,0.138,0.1385,0.1529,0.1558,0.1668,0.1725,0.1817,0.1781,0.1797,0.1781,0.1961,0.1956,0.201,0.2025,0.2038,0.1946,0,0,0,0,0]},{"header":{"parameterUnit":"m.s-1","parameterCategory":2,"la1":30.2991,"la2":30.254,"lo1":-89.0895,"lo2":-89.0444,"dy":0.0017,"dx":0.0017,"nx":28,"ny":28,"refTime":"2024-06-03T03:00:00:Z","depth":"4","parameterNumber":3,"parameterNumberName":"V-component_of_CURRENTS"},"data":[0,0,0,0,0,0,0,0,0,0,0,0,0,0,0,0,0,0,0,0,0,0,0,0,0,0,0,0,0,0,0,0,0,0,0,0,0,0,0,0,0,0,0,0,0,0,0,0,0,0,0,0,0,0,0,0,0,0,0.009,0.009,0,0.007,0.007,0.007,0.0053,0.0053,0.0053,0.0053,0.0039,0.0039,0.0039,0,0,0,0,0,0,0,0,0,0,0,0,0,0.0089,0.0089,0.009,0.009,0.009,0.007,0.007,0.007,0.0053,0.0053,0.0053,0.0053,0.0039,0.0039,0.0039,0,0,0,0,0,0,0,0,0,0,0,0,0,0.0081,0.0089,0.009,0.0079,0.0078,0.007,0.007,0.007,0.0053,0.0053,0.0053,0.0052,0.0039,0.0039,0.0039,0.0042,0,0,0.0038,0.0037,0,0,0,0,0,0,0,0,0.0082,0.0081,0.0081,0.008,0.0079,0.0064,0.0064,0.0061,0.0053,0.0063,0.0053,0.0052,0.0048,0.0047,0.0044,0.0041,0.004,0.0038,0.0037,0.0037,0.0037,0,0,0,0,0,0,0,0.0082,0.0082,0.0082,0.0081,0.0079,0.0067,0.0066,0.0064,0.0057,0.0062,0.0061,0.0059,0.0048,0.0044,0.0043,0.004,0.0038,0.0037,0.0037,0.0037,0.0032,0.0033,0,0,0,0,0,0,0.0087,0.0083,0.0083,0.0082,0.008,0.0067,0.0066,0.0069,0.0057,0.0055,0.0059,0.0058,0.0045,0.0044,0.0043,0.0046,0.0037,0.0037,0.0037,0.0032,0.0032,0.0033,0,0,0,0,0,0,0.0087,0.0087,0.0084,0.0081,0.008,0.0068,0.0071,0.0069,0.0067,0.0055,0.0053,0.0059,0.0044,0.0043,0.0039,0.0046,0.0037,0.0036,0.0032,0.0032,0.0032,0.0053,0,0,0,0,0,0,0.0087,0.0088,0.0093,0.0082,0.008,0.0084,0.0071,0.0068,0.0066,0.0064,0.0055,0.0053,0.0044,0.004,0.0039,0.0045,0.0036,0.0032,0.0032,0.0032,0.0052,0.0054,0.0055,0,0,0,0,0,0.0087,0.0097,0.0094,0.0094,0.0088,0.0084,0.0082,0.0072,0.0066,0.0069,0.0057,0.0053,0.004,0.004,0.0039,0.0045,0.0032,0.0032,0.0032,0.0052,0.0054,0.0055,0,0,0,0,0,0,0.0099,0.0096,0.0092,0.01,0.0095,0.0081,0.0084,0.0076,0.0069,0.0068,0.0054,0.0052,0.0051,0.0045,0.0044,0.0043,0.0035,0.0035,0.005,0.0052,0.0054,0.0062,0.0036,0,0,0,0,0,0.0105,0.0111,0.0103,0.011,0.011,0.0098,0.0095,0.0088,0.0079,0.0075,0.0068,0.0059,0.0051,0.0049,0.0042,0.0044,0.0022,0.0046,0.0048,0.0049,0.0055,0.0021,0.002,0.0033,0.0033,0.0033,0,0,0.0111,0.011,0.0113,0.0113,0.0109,0.0114,0.0096,0.0095,0.0098,0.0076,0.0081,0.0065,0.0052,0.005,0.0049,0.0046,0.0032,0.0049,0.0051,0.0056,0.0021,0.002,0.0019,0.0033,0.0033,0.0033,0,0,0.0126,0.0127,0.0138,0.0137,0.0134,0.0126,0.0128,0.0119,0.0115,0.0114,0.0096,0.0083,0.0078,0.0065,0.0058,0.0065,0.004,0.0063,0.008,0.0047,0.0046,0.0044,0.0007,0.0002,0.0065,0.0065,0.0065,0,0.0134,0.0149,0.0139,0.015,0.0155,0.0135,0.0148,0.0141,0.0131,0.0129,0.012,0.0097,0.0085,0.0076,0.0076,0.0069,0.0043,0.0075,0.0049,0.0047,0.0045,0.0007,0.0001,0.0066,0.0066,0.0066,0.0066,0,0.0159,0.0171,0.0178,0.0188,0.0188,0.0197,0.0187,0.0188,0.0178,0.0166,0.0154,0.0129,0.0117,0.0107,0.0095,0.0078,0.006,0.0053,0.0044,0.0045,0.0005,-0.0001,0.0068,0.0067,0.0067,0.0067,0,0,0.0175,0.0194,0.0197,0.0212,0.0211,0.0216,0.0223,0.0222,0.0227,0.0205,0.0204,0.0178,0.0157,0.0147,0.0123,0.0093,0.0053,0.007,0.0068,0.0034,-0.0028,-0.0023,-0.003,0.0037,0.0036,0.0036,-0.0054,0,0.0199,0.023,0.0231,0.0261,0.0277,0.0268,0.0277,0.0271,0.0258,0.0252,0.0213,0.0204,0.0174,0.0167,0.013,0.0077,0.0039,0.0078,-0.0023,-0.0026,-0.0022,-0.0036,0.0033,-0.0059,-0.006,-0.0061,-0.0062,0,0.0226,0.0244,0.028,0.0304,0.0311,0.0327,0.034,0.0346,0.0325,0.0314,0.0286,0.0252,0.021,0.0184,0.0084,0.0108,0.0045,-0.0005,-0.001,-0.0014,-0.0033,-0.0058,-0.0074,-0.0073,-0.0072,-0.0071,-0.0071,0,0.0246,0.0279,0.0312,0.0322,0.0343,0.0363,0.0375,0.0367,0.038,0.0355,0.0353,0.0287,0.0266,0.0175,0.0075,0.0077,-0.0045,-0.0053,-0.0114,-0.0115,-0.0102,-0.0099,-0.0129,-0.0129,-0.0129,-0.0129,-0.0128,0,0.0273,0.0299,0.033,0.0351,0.0395,0.0396,0.0436,0.0435,0.0436,0.0452,0.0391,0.0381,0.0263,0.0181,0.008,-0.0036,-0.0043,-0.0114,-0.0137,-0.0092,-0.0088,-0.0107,-0.0104,-0.0132,-0.0131,-0.0131,-0.013,0,0.029,0.031,0.0353,0.039,0.0411,0.0443,0.0491,0.0511,0.0507,0.0526,0.0522,0.0451,0.0348,0.0215,0.0066,-0.0015,-0.0135,-0.0177,-0.0125,-0.0143,-0.0188,-0.0183,-0.0252,-0.0252,-0.0253,-0.0253,-0.0253,0,0.03,0.0325,0.0387,0.0421,0.0446,0.0497,0.0531,0.0549,0.0574,0.0569,0.0579,0.0492,0.0428,0.022,0.0075,-0.0128,-0.0153,-0.0222,-0.0201,-0.0185,-0.0201,-0.0194,-0.0188,-0.0254,-0.0254,-0.0254,-0.0255,0,0.0317,0.0343,0.038,0.0451,0.0503,0.0561,0.0615,0.0639,0.0658,0.0655,0.063,0.0523,0.0406,0.0237,0.0077,-0.0068,-0.018,-0.0227,-0.0227,-0.0208,-0.0189,-0.0202,-0.0196,-0.0256,-0.0256,-0.0256,-0.0256,0,0.0331,0.0359,0.0412,0.0477,0.0544,0.0607,0.0634,0.0667,0.0693,0.069,0.068,0.055,0.0477,0.0267,0.0118,-0.0023,-0.0055,-0.0099,-0.0107,-0.0107,-0.0036,0.001,-0.0016,0,0,0,0,0,0.0341,0.0376,0.0431,0.0505,0.0571,0.0615,0.0681,0.07,0.0722,0.0716,0.0704,0.0596,0.039,0.0297,0.0159,0.0097,-0.0092,-0.0072,-0.015,-0.0265,-0.0263,-0.0205,0,0,0,0,0,0,0.0346,0.0399,0.0428,0.0517,0.057,0.0646,0.0691,0.0707,0.0708,0.0709,0.0603,0.0559,0.0356,0.0471,0.0156,0.0112,0.0043,-0.0167,-0.017,-0.0266,-0.0264,-0.0263,-0.0202,0,0,0,0,0]}]]